Terminal Aerodrome Forecast
Issued by NWS

Home | Current Version | Previous Version | Text Only | Print | Product List | Glossary On
Versions: 1 2 3 4 5 6 7 8 9 10 11 12 13 14 15 16 17 18 19 20 21 22 23 24 25 26 27 28 29 30 31 32 33 34 35 36 37 38 39 40 41 42 43 44 45 46 47 48 49 50
466
FTUS41 KOKX 170242 AAA
TAFHPN
TAF AMD
KHPN 170242Z 1703/1724 VRB04KT P6SM SCT150 BKN250
     FM171700 23007KT P6SM SCT150 BKN250
     FM172000 18007KT P6SM SCT050 SCT150 BKN250
     FM172200 19006KT P6SM VCSH SCT025 BKN040 PROB30 1722/1724 3SM
      TSRA BKN025 BKN040CB
     AMD NOT SKED=

USA.gov is the U.S. government's official web portal to all federal, state and local government web resources and services.